| time (UTC) | temp C | wind direction | speed KPH | gust KPH | rain 1hr cm | rain 24hr cm | rain mn cm | humidity % | barometer mb |
| 20260506231540 | 11 | 13 | 3.2 | 8.0 | 0.03 | 0.51 | 0.48 | 98 | 855.5 |
| 20260506230523 | 11 | 331 | 3.2 | 9.7 | 0.03 | 0.48 | 0.48 | 97 | 855.6 |
| 20260506225620 | 12 | 356 | 4.8 | 6.4 | 0.03 | 0.48 | 0.48 | 98 | 855.7 |
| 20260506224523 | 13 | 1 | 4.8 | 11.3 | 0.03 | 0.48 | 0.48 | 97 | 855.7 |
| 20260506223558 | 15 | 6 | 6.4 | 11.3 | 0.03 | 0.48 | 0.48 | 96 | 855.9 |
| 20260506222523 | 15 | 319 | 4.8 | 11.3 | 0.03 | 0.51 | 0.48 | 96 | 856.1 |
| 20260506221546 | 16 | 297 | 1.6 | 6.4 | 0.00 | 0.51 | 0.46 | 94 | 856.1 |
| 20260506220526 | 15 | 295 | 1.6 | 4.8 | 0.00 | 0.51 | 0.46 | 94 | 856.1 |
| 20260506215525 | 15 | 252 | 0.0 | 3.2 | 0.00 | 0.51 | 0.46 | 95 | 856.1 |
| 20260506214527 | 15 | 19 | 0.0 | 4.8 | 0.00 | 0.51 | 0.46 | 95 | 856.1 |
| 20260506213526 | 15 | 10 | 1.6 | 3.2 | 0.00 | 0.51 | 0.46 | 95 | 856.1 |
| 20260506212521 | 15 | 242 | 1.6 | 4.8 | 0.00 | 0.51 | 0.46 | 95 | 856.1 |
| 20260506211521 | 15 | 225 | 1.6 | 4.8 | 0.00 | 0.51 | 0.46 | 93 | 856.1 |
| 20260506210521 | 16 | 36 | 1.6 | 3.2 | 0.00 | 0.51 | 0.46 | 94 | 856.1 |
| 20260506205521 | 16 | 243 | 1.6 | 4.8 | 0.00 | 0.51 | 0.46 | 92 | 856.1 |
| 20260506204519 | 16 | 251 | 4.8 | 8.0 | 0.00 | 0.51 | 0.46 | 93 | 856.1 |
| 20260506203522 | 16 | 284 | 3.2 | 6.4 | 0.00 | 0.51 | 0.46 | 93 | 856.1 |
| 20260506202519 | 15 | 247 | 3.2 | 9.7 | 0.00 | 0.51 | 0.46 | 94 | 856.1 |
| 20260506201522 | 15 | 167 | 0.0 | 3.2 | 0.00 | 0.51 | 0.46 | 95 | 856.1 |
| 20260506200519 | 16 | 237 | 3.2 | 9.7 | 0.00 | 0.51 | 0.46 | 95 | 856.1 |
| 20260506195522 | 16 | 26 | 1.6 | 3.2 | 0.00 | 0.51 | 0.46 | 95 | 856.1 |
| 20260506194523 | 16 | 5 | 3.2 | 4.8 | 0.00 | 0.51 | 0.46 | 94 | 856.1 |
| 20260506193520 | 16 | 264 | 4.8 | 9.7 | 0.03 | 0.51 | 0.46 | 96 | 856.1 |
| 20260506192523 | 15 | 30 | 1.6 | 3.2 | 0.05 | 0.51 | 0.46 | 96 | 856.1 |
| 20260506191523 | 15 | 18 | 3.2 | 4.8 | 0.05 | 0.51 | 0.46 | 96 | 856.1 |
| 20260506190523 | 15 | 38 | 3.2 | 6.4 | 0.05 | 0.51 | 0.46 | 95 | 856.1 |
| 20260506185520 | 15 | 224 | 3.2 | 8.0 | 0.08 | 0.51 | 0.46 | 95 | 856.1 |
| 20260506184523 | 15 | 180 | 3.2 | 4.8 | 0.08 | 0.51 | 0.46 | 95 | 856.1 |
| 20260506183524 | 15 | 256 | 3.2 | 6.4 | 0.10 | 0.48 | 0.43 | 95 | 856.1 |
| 20260506182524 | 15 | 149 | 1.6 | 8.0 | 0.13 | 0.48 | 0.41 | 95 | 856.1 |
| 20260506181524 | 15 | 179 | 3.2 | 6.4 | 0.18 | 0.46 | 0.41 | 96 | 856.1 |
| 20260506180524 | 15 | 214 | 3.2 | 6.4 | 0.20 | 0.46 | 0.38 | 96 | 856.1 |
| 20260506175524 | 15 | 62 | 1.6 | 1.6 | 0.23 | 0.43 | 0.38 | 98 | 856.1 |
| 20260506174528 | 15 | 88 | 1.6 | 3.2 | 0.28 | 0.43 | 0.38 | 97 | 856.0 |
| 20260506173529 | 15 | 12 | 3.2 | 3.2 | 0.25 | 0.41 | 0.33 | 97 | 856.1 |
| 20260506172529 | 15 | 220 | 1.6 | 3.2 | 0.25 | 0.36 | 0.30 | 95 | 856.1 |
| 20260506171525 | 15 | 313 | 3.2 | 4.8 | 0.18 | 0.28 | 0.23 | 94 | 856.1 |
| 20260506170525 | 15 | 217 | 1.6 | 6.4 | 0.15 | 0.25 | 0.18 | 95 | 856.1 |
| 20260506165545 | 15 | 262 | 1.6 | 3.2 | 0.13 | 0.20 | 0.15 | 96 | 856.1 |
| 20260506164525 | 15 | 21 | 1.6 | 4.8 | 0.10 | 0.15 | 0.10 | 95 | 856.1 |
| 20260506163525 | 15 | 27 | 0.0 | 1.6 | 0.08 | 0.13 | 0.08 | 95 | 856.1 |
| 20260506162526 | 16 | 2 | 0.0 | 1.6 | 0.05 | 0.10 | 0.05 | 94 | 856.1 |
| 20260506161526 | 16 | 25 | 0.0 | 1.6 | 0.05 | 0.10 | 0.05 | 92 | 856.1 |
| 20260506160526 | 16 | 307 | 1.6 | 6.4 | 0.03 | 0.08 | 0.03 | 92 | 856.2 |
| 20260506155527 | 16 | 247 | 3.2 | 6.4 | 0.03 | 0.08 | 0.03 | 91 | 856.2 |
| 20260506154526 | 16 | 193 | 0.0 | 3.2 | 0.00 | 0.08 | 0.00 | 92 | 856.2 |
| 20260506153526 | 16 | 245 | 1.6 | 3.2 | 0.00 | 0.05 | 0.00 | 92 | 856.2 |
| 20260506152531 | 16 | 102 | 0.0 | 1.6 | 0.00 | 0.05 | 0.00 | 93 | 856.2 |
| 20260506151552 | 16 | 58 | 0.0 | 1.6 | 0.00 | 0.05 | 0.00 | 93 | 856.2 |
| 20260506150532 | 16 | 236 | 0.0 | 3.2 | 0.00 | 0.05 | 0.00 | 93 | 856.2 |
| 20260506145532 | 17 | 136 | 0.0 | 0.0 | 0.00 | 0.05 | 0.00 | 88 | 856.2 |
| 20260506144532 | 17 | 230 | 1.6 | 4.8 | 0.00 | 0.05 | 0.00 | 85 | 856.3 |
| 20260506143554 | 17 | 248 | 1.6 | 6.4 | 0.00 | 0.05 | 0.00 | 82 | 856.3 |
| 20260506142528 | 17 | 245 | 1.6 | 4.8 | 0.00 | 0.05 | 0.00 | 81 | 856.4 |
| 20260506141528 | 17 | 208 | 1.6 | 3.2 | 0.00 | 0.05 | 0.00 | 80 | 856.4 |
| 20260506140519 | 18 | 225 | 3.2 | 11.3 | 0.00 | 0.05 | 0.00 | 79 | 856.4 |
| 20260506135600 | 18 | 216 | 3.2 | 11.3 | 0.00 | 0.05 | 0.00 | 80 | 856.4 |
| 20260506134520 | 18 | 223 | 4.8 | 12.9 | 0.00 | 0.05 | 0.00 | 79 | 856.4 |
| 20260506133520 | 18 | 229 | 4.8 | 8.0 | 0.00 | 0.05 | 0.00 | 79 | 856.4 |
| 20260506132529 | 17 | 215 | 3.2 | 6.4 | 0.00 | 0.05 | 0.00 | 80 | 856.4 |
| 20260506131529 | 17 | 220 | 3.2 | 8.0 | 0.00 | 0.05 | 0.00 | 81 | 856.3 |
| 20260506130517 | 17 | 207 | 4.8 | 17.7 | 0.00 | 0.05 | 0.00 | 81 | 856.3 |
| 20260506125520 | 17 | 225 | 4.8 | 12.9 | 0.00 | 0.05 | 0.00 | 82 | 856.3 |
| 20260506124529 | 16 | 234 | 3.2 | 8.0 | 0.00 | 0.05 | 0.00 | 82 | 856.2 |
| 20260506123521 | 16 | 215 | 4.8 | 11.3 | 0.00 | 0.05 | 0.00 | 82 | 856.2 |
| 20260506122610 | 16 | 220 | 3.2 | 6.4 | 0.00 | 0.05 | 0.00 | 82 | 856.2 |
| 20260506121530 | 16 | 236 | 3.2 | 6.4 | 0.00 | 0.05 | 0.00 | 82 | 856.2 |
| 20260506120521 | 16 | 240 | 3.2 | 8.0 | 0.00 | 0.05 | 0.00 | 82 | 856.2 |
| 20260506115530 | 16 | 219 | 4.8 | 8.0 | 0.00 | 0.05 | 0.00 | 82 | 856.2 |
| 20260506114530 | 16 | 235 | 1.6 | 6.4 | 0.00 | 0.05 | 0.00 | 83 | 856.1 |
| 20260506113530 | 15 | 122 | 1.6 | 4.8 | 0.00 | 0.05 | 0.00 | 83 | 856.1 |
| 20260506112550 | 15 | 78 | 1.6 | 6.4 | 0.00 | 0.05 | 0.00 | 86 | 856.0 |
| 20260506111531 | 13 | 0 | 1.6 | 6.4 | 0.00 | 0.05 | 0.00 | 89 | 855.9 |
| 20260506110550 | 13 | 276 | 3.2 | 8.0 | 0.00 | 0.05 | 0.00 | 91 | 855.8 |
| 20260506105531 | 12 | 28 | 1.6 | 3.2 | 0.00 | 0.05 | 0.00 | 95 | 855.7 |
| 20260506104531 | 12 | 97 | 3.2 | 4.8 | 0.00 | 0.08 | 0.00 | 96 | 855.7 |
| 20260506103531 | 12 | 319 | 1.6 | 3.2 | 0.00 | 0.08 | 0.00 | 98 | 855.6 |
| 20260506102531 | 11 | 68 | 1.6 | 4.8 | 0.00 | 0.08 | 0.00 | 99 | 855.6 |
| 20260506101532 | 11 | 95 | 1.6 | 3.2 | 0.00 | 0.08 | 0.00 | 100 | 855.6 |
| 20260506100557 | 11 | 284 | 1.6 | 3.2 | 0.00 | 0.08 | 0.00 | 100 | 855.5 |
| 20260506095518 | 11 | 272 | 1.6 | 3.2 | 0.00 | 0.08 | 0.00 | 100 | 855.5 |
| 20260506094533 | 11 | 263 | 3.2 | 6.4 | 0.00 | 0.08 | 0.00 | 100 | 855.5 |
| 20260506093532 | 11 | 74 | 1.6 | 1.6 | 0.00 | 0.08 | 0.00 | 100 | 855.5 |
| 20260506092553 | 11 | 116 | 1.6 | 3.2 | 0.00 | 0.08 | 0.00 | 100 | 855.5 |
| 20260506091538 | 11 | 246 | 1.6 | 3.2 | 0.00 | 0.08 | 0.00 | 100 | 855.5 |
| 20260506090517 | 11 | 232 | 0.0 | 1.6 | 0.00 | 0.08 | 0.00 | 100 | 855.5 |
| 20260506085518 | 11 | 75 | 1.6 | 1.6 | 0.00 | 0.08 | 0.00 | 100 | 855.6 |
| 20260506084519 | 11 | 270 | 1.6 | 3.2 | 0.00 | 0.08 | 0.00 | 100 | 855.5 |
| 20260506083518 | 11 | 251 | 1.6 | 3.2 | 0.00 | 0.08 | 0.00 | 100 | 855.5 |
| 20260506082517 | 11 | 252 | 1.6 | 3.2 | 0.00 | 0.08 | 0.00 | 100 | 855.6 |
| 20260506081517 | 11 | 256 | 1.6 | 3.2 | 0.00 | 0.08 | 0.00 | 100 | 855.6 |
| 20260506080519 | 12 | 262 | 3.2 | 4.8 | 0.00 | 0.08 | 0.00 | 100 | 855.6 |
| 20260506072518 | 12 | 86 | 1.6 | 4.8 | 0.00 | 0.08 | 0.00 | 99 | 855.7 |
| 20260506071518 | 12 | 240 | 1.6 | 3.2 | 0.00 | 0.08 | 0.00 | 98 | 855.7 |
| 20260506070517 | 12 | 152 | 0.0 | 1.6 | 0.00 | 0.08 | 0.00 | 97 | 855.7 |
| 20260506061518 | 13 | 169 | 0.0 | 1.6 | 0.00 | 0.08 | 0.00 | 96 | 855.8 |
| 20260506060518 | 13 | 250 | 1.6 | 3.2 | 0.00 | 0.08 | 0.00 | 95 | 855.8 |
| 20260506050520 | 13 | 254 | 3.2 | 4.8 | 0.00 | 0.08 | 0.00 | 97 | 855.9 |
| 20260506044517 | 14 | 251 | 3.2 | 4.8 | 0.00 | 0.08 | 0.00 | 96 | 855.9 |
| 20260506043517 | 14 | 260 | 3.2 | 4.8 | 0.00 | 0.08 | 0.00 | 96 | 855.9 |
| 20260506042520 | 15 | 106 | 1.6 | 3.2 | 0.00 | 0.08 | 0.00 | 94 | 855.9 |
| 20260506041520 | 15 | 252 | 1.6 | 3.2 | 0.00 | 0.08 | 0.00 | 93 | 856.0 |
| 20260506040518 | 15 | 294 | 3.2 | 4.8 | 0.00 | 0.08 | 0.00 | 93 | 856.0 |
| 20260506035517 | 15 | 260 | 1.6 | 3.2 | 0.00 | 0.08 | 0.08 | 94 | 856.0 |
| 20260506034518 | 15 | 214 | 0.0 | 3.2 | 0.00 | 0.08 | 0.08 | 93 | 856.0 |
| 20260506033521 | 15 | 285 | 1.6 | 4.8 | 0.00 | 0.08 | 0.08 | 93 | 856.0 |
| 20260506032518 | 15 | 260 | 3.2 | 3.2 | 0.00 | 0.08 | 0.08 | 94 | 856.0 |
| 20260506031518 | 15 | 255 | 1.6 | 3.2 | 0.00 | 0.08 | 0.08 | 93 | 856.0 |
| 20260506030519 | 15 | 196 | 0.0 | 1.6 | 0.00 | 0.08 | 0.08 | 92 | 856.1 |
| 20260506025539 | 15 | 304 | 0.0 | 3.2 | 0.00 | 0.08 | 0.08 | 91 | 856.1 |
| 20260506024519 | 15 | 265 | 1.6 | 4.8 | 0.00 | 0.08 | 0.08 | 91 | 856.1 |
| 20260506023519 | 15 | 259 | 3.2 | 6.4 | 0.00 | 0.08 | 0.08 | 93 | 856.0 |
| 20260506022540 | 15 | 267 | 0.0 | 1.6 | 0.00 | 0.08 | 0.08 | 94 | 856.0 |
| 20260506021540 | 15 | 252 | 1.6 | 3.2 | 0.00 | 0.08 | 0.08 | 93 | 856.1 |
| 20260506020600 | 15 | 81 | 0.0 | 3.2 | 0.00 | 0.08 | 0.08 | 92 | 856.1 |
| 20260506015540 | 15 | 296 | 1.6 | 4.8 | 0.00 | 0.08 | 0.08 | 91 | 856.1 |
| 20260506014520 | 16 | 259 | 1.6 | 3.2 | 0.00 | 0.08 | 0.08 | 92 | 856.1 |
| 20260506013540 | 16 | 184 | 0.0 | 3.2 | 0.00 | 0.08 | 0.08 | 89 | 856.1 |
| 20260506012517 | 16 | 254 | 0.0 | 3.2 | 0.00 | 0.08 | 0.08 | 85 | 856.2 |
| 20260506011518 | 16 | 259 | 6.4 | 9.7 | 0.00 | 0.08 | 0.08 | 83 | 856.2 |
| 20260506010533 | 16 | 257 | 1.6 | 3.2 | 0.00 | 0.08 | 0.08 | 87 | 856.1 |
| 20260506005018 | 16 | 255 | 0.0 | 3.2 | 0.00 | 0.08 | 0.08 | 88 | 856.1 |
| 20260506004030 | 16 | 0.0 | 0.0 | 0.00 | 0.08 | 0.08 | 86 | 856.2 | |
| 20260506003033 | 16 | 245 | 0.0 | 1.6 | 0.03 | 0.08 | 0.08 | 84 | 856.2 |
| 20260506001519 | 16 | 254 | 1.6 | 4.8 | 0.00 | 0.08 | 0.08 | 83 | 856.2 |
| 20260506000539 | 17 | 208 | 0.0 | 3.2 | 0.00 | 0.08 | 0.08 | 83 | 856.2 |
| 20260505235519 | 17 | 0.0 | 0.0 | 0.00 | 0.08 | 0.08 | 82 | 856.2 | |
| 20260505234519 | 17 | 192 | 0.0 | 3.2 | 0.00 | 0.08 | 0.08 | 81 | 856.3 |
| 20260505233520 | 17 | 222 | 1.6 | 3.2 | 0.00 | 0.08 | 0.08 | 79 | 856.3 |
| 20260505232519 | 17 | 133 | 0.0 | 3.2 | 0.03 | 0.08 | 0.08 | 79 | 856.3 |